Hourly Data Report for August 14, 2015

All times are specified in Local Standard Time (LST). Add 1 hour to adjust for Daylight Saving Time where and when it is observed.

TORONTO INTL A
ONTARIO

43°40'36.000" N
79°37'50.000" W
173.40 m
6158731
71624
YYZ

Download Data

Hourly Data (August 2015)
Hourly Data Report for August 14, 2015
Temp Definition
°C
Dew Point Temp Definition
°C
Rel Hum Definition
%
Wind Dir Definition
10's deg

Wind Spd Definition
km/h
Visibility Definition
km
Stn Press Definition
kPa
Hmdx Definition


Wind Chill Definition


Weather Definition


TIME
00:00 Legend Double Dagger 21.7 17.4 76 24 21 24.1 99.58 27   LegendNANA
01:00 Legend Double Dagger 20.8 17.3 80 24 8 24.1 99.53 26   Mostly Cloudy
02:00 Legend Double Dagger 21.3 17.2 77 24 12 24.1 99.52 27   LegendNANA
03:00 Legend Double Dagger 21.4 17.5 78 22 11 24.1 99.49 27   LegendNANA
04:00 Legend Double Dagger 21.4 17.5 78 21 15 24.1 99.50 27   Mostly Cloudy
05:00 Legend Double Dagger 21.0 18.2 84 24 14 24.1 99.53 27   Rain Showers
06:00 Legend Double Dagger 20.8 18.6 87 23 16 19.3 99.55 27   Rain Showers
07:00 Legend Double Dagger 20.8 18.6 87 18 13 24.1 99.55 27   Rain Showers
08:00 Legend Double Dagger 20.5 19.0 91 24 7 24.1 99.64 27   Rain Showers
09:00 Legend Double Dagger 21.7 19.3 86 23 28 19.3 99.64 29   Rain Showers
10:00 Legend Double Dagger 23.0 19.8 82 22 19 24.1 99.67 30   Cloudy
11:00 Legend Double Dagger 23.0 19.6 81 26 15 24.1 99.66 30   LegendNANA
12:00 Legend Double Dagger 22.7 19.1 80 23 18 24.1 99.68 30   LegendNANA
13:00 Legend Double Dagger 23.6 19.8 79 24 16 24.1 99.66 31   Mostly Cloudy
14:00 Legend Double Dagger 25.6 20.7 74 24 20 24.1 99.66 34   LegendNANA
15:00 Legend Double Dagger 26.4 21.3 73 25 21 24.1 99.60 35   LegendNANA
16:00 Legend Double Dagger 27.1 21.3 70 25 16 24.1 99.60 36   Mostly Cloudy
17:00 Legend Double Dagger 26.6 21.2 72 25 17 24.1 99.61 35   LegendNANA
18:00 Legend Double Dagger 26.0 21.3 75 22 17 24.1 99.57 35   LegendNANA
19:00 Legend Double Dagger 24.6 21.4 82 24 22 24.1 99.60 33   Mostly Cloudy
20:00 Legend Double Dagger 23.6 21.0 85 25 16 24.1 99.63 32   LegendNANA
21:00 Legend Double Dagger 23.0 20.8 87 25 15 24.1 99.68 31   LegendNANA
22:00 Legend Double Dagger 22.2 19.6 85 24 11 24.1 99.68 29   Mostly Cloudy
23:00 Legend Double Dagger 21.4 19.5 89 27 10 24.1 99.68 29   LegendNANA

Notes on Data Quality.

Legend

  • E = Estimated
  • M = Missing
  • NA = Not Available
  • ‡ = Partner data that is not subject to review by the National Climate Archives
Date modified: